SWA3321 KLAS-KGEG

Flight info

Callsign SWA3321
Flight time N/A
Altitude 37000
Route RATPK3 FRNCK WINEN KU57M PARZZ VELUY DNJ ZATIP
Aircraft B738/M-SADE2E3GIJ4RWZ/LB1D1

Departure

Time N/A
Airport Harry Reid International Airport (KLAS)

Arrival

Time 2026-04-21 07:28
Airport Spokane International Airport (KGEG)
Time Latitude Longitude Altitude Speed Heading
2026-04-21 06:31 41.53057 -114.99853 37125 ft 492 kts 336°
2026-04-21 06:32 41.58143 -115.02432 37111 ft 490 kts 336°
2026-04-21 06:32 41.64703 -115.05102 37102 ft 493 kts 342°
2026-04-21 06:33 41.71333 -115.07355 37099 ft 494 kts 343°
2026-04-21 06:33 41.78018 -115.09598 37101 ft 492 kts 343°
2026-04-21 06:34 41.84650 -115.11842 37096 ft 492 kts 343°
2026-04-21 06:34 41.91262 -115.14091 37090 ft 492 kts 343°
2026-04-21 06:35 41.97912 -115.16362 37075 ft 492 kts 343°
2026-04-21 06:35 42.04512 -115.18624 37067 ft 493 kts 343°
2026-04-21 06:36 42.11173 -115.20911 37061 ft 490 kts 342°
2026-04-21 06:36 42.17767 -115.23181 37053 ft 492 kts 343°
2026-04-21 06:37 42.24418 -115.25474 37044 ft 491 kts 343°
2026-04-21 06:37 42.31033 -115.27759 37029 ft 491 kts 343°
2026-04-21 06:38 42.37658 -115.30055 37019 ft 491 kts 343°
2026-04-21 06:38 42.44264 -115.32351 37017 ft 492 kts 343°
2026-04-21 06:39 42.50679 -115.34583 36978 ft 491 kts 343°
2026-04-21 06:39 42.57305 -115.36892 36957 ft 489 kts 343°
2026-04-21 06:40 42.63901 -115.39198 36922 ft 490 kts 343°
2026-04-21 06:40 42.70324 -115.41447 36910 ft 490 kts 342°
2026-04-21 06:41 42.76925 -115.43763 36899 ft 490 kts 342°
2026-04-21 06:41 42.83506 -115.46076 36878 ft 489 kts 342°
2026-04-21 06:42 42.90097 -115.48399 36862 ft 488 kts 342°
2026-04-21 06:42 42.96670 -115.50722 36849 ft 489 kts 342°
2026-04-21 06:43 43.03240 -115.53048 36852 ft 489 kts 342°
2026-04-21 06:43 43.09813 -115.55380 36871 ft 489 kts 342°
2026-04-21 06:44 43.16400 -115.57723 36913 ft 488 kts 342°
2026-04-21 06:44 43.22983 -115.60070 36932 ft 489 kts 342°
2026-04-21 06:45 43.29559 -115.62419 36957 ft 488 kts 342°
2026-04-21 06:45 43.35929 -115.64699 36959 ft 488 kts 342°
2026-04-21 06:46 43.42478 -115.67048 36959 ft 488 kts 341°
2026-04-21 06:46 43.49056 -115.69412 36972 ft 488 kts 341°
2026-04-21 06:47 43.55591 -115.71767 36991 ft 488 kts 341°
2026-04-21 06:47 43.62147 -115.74136 37017 ft 489 kts 341°
2026-04-21 06:48 43.68681 -115.76593 37060 ft 487 kts 340°
2026-04-21 06:48 43.75188 -115.79218 37074 ft 487 kts 340°
2026-04-21 06:49 43.81660 -115.81838 37072 ft 487 kts 340°
2026-04-21 06:49 43.88142 -115.84454 37063 ft 487 kts 340°
2026-04-21 06:50 43.94653 -115.87080 37069 ft 488 kts 340°
2026-04-21 06:50 44.01181 -115.89716 37076 ft 487 kts 340°
2026-04-21 06:51 44.07643 -115.92330 37057 ft 486 kts 340°
2026-04-21 06:51 44.14127 -115.94958 37035 ft 487 kts 340°
2026-04-21 06:52 44.20602 -115.97587 37025 ft 485 kts 340°
2026-04-21 06:52 44.27114 -116.00236 37012 ft 486 kts 339°
2026-04-21 06:53 44.33575 -116.02872 37010 ft 486 kts 340°
2026-04-21 06:53 44.40084 -116.05534 37009 ft 486 kts 339°
2026-04-21 06:54 44.46556 -116.08186 36999 ft 487 kts 339°
2026-04-21 06:54 44.52994 -116.10831 36998 ft 487 kts 339°
2026-04-21 06:55 44.59266 -116.13411 37012 ft 486 kts 339°
2026-04-21 06:55 44.65543 -116.16001 37023 ft 487 kts 339°
2026-04-21 06:56 44.72050 -116.18693 37033 ft 486 kts 339°
2026-04-21 06:56 44.78350 -116.21028 37015 ft 490 kts 345°
2026-04-21 06:57 44.85104 -116.22579 36991 ft 491 kts 348°
2026-04-21 06:57 44.91844 -116.23967 36998 ft 491 kts 348°
2026-04-21 06:58 44.98592 -116.25387 36991 ft 491 kts 348°
2026-04-21 06:58 45.05352 -116.26833 36999 ft 491 kts 347°
2026-04-21 06:59 45.12096 -116.28291 37021 ft 490 kts 347°
2026-04-21 06:59 45.18831 -116.29754 37034 ft 490 kts 347°
2026-04-21 07:00 45.25532 -116.31217 37063 ft 491 kts 347°
2026-04-21 07:00 45.32269 -116.32692 37052 ft 491 kts 347°
2026-04-21 07:01 45.39036 -116.34176 37027 ft 490 kts 347°
2026-04-21 07:01 45.49143 -116.36401 36982 ft 491 kts 347°
2026-04-21 07:02 45.55865 -116.37884 36960 ft 490 kts 347°
2026-04-21 07:02 45.62560 -116.39365 36942 ft 490 kts 347°
2026-04-21 07:03 45.69295 -116.40860 36910 ft 490 kts 347°
2026-04-21 07:03 45.76001 -116.42353 36902 ft 490 kts 347°
2026-04-21 07:04 45.82728 -116.43854 36886 ft 490 kts 347°
2026-04-21 07:04 45.89443 -116.45354 36884 ft 489 kts 347°
2026-04-21 07:05 45.96172 -116.46860 36880 ft 489 kts 347°
2026-04-21 07:05 46.02769 -116.48341 36874 ft 488 kts 347°
2026-04-21 07:06 46.09465 -116.49849 36871 ft 490 kts 347°
2026-04-21 07:06 46.16207 -116.51372 36875 ft 487 kts 346°
2026-04-21 07:07 46.22695 -116.53738 36727 ft 477 kts 333°
2026-04-21 07:07 46.25673 -116.55713 36193 ft 466 kts 326°
2026-04-21 07:07 46.28461 -116.58000 35499 ft 462 kts 323°
2026-04-21 07:08 46.31204 -116.60412 34712 ft 462 kts 322°
2026-04-21 07:08 46.33934 -116.62850 33936 ft 462 kts 322°
2026-04-21 07:08 46.36645 -116.65266 33181 ft 463 kts 322°
2026-04-21 07:08 46.39388 -116.67702 32375 ft 465 kts 322°
2026-04-21 07:09 46.42144 -116.70144 31528 ft 468 kts 322°
2026-04-21 07:09 46.44915 -116.72597 30693 ft 469 kts 323°
2026-04-21 07:09 46.47695 -116.75051 30104 ft 465 kts 323°
2026-04-21 07:09 46.50439 -116.77471 29510 ft 461 kts 323°
2026-04-21 07:10 46.53162 -116.79875 28887 ft 458 kts 323°
2026-04-21 07:10 46.55871 -116.82270 28251 ft 455 kts 323°
2026-04-21 07:10 46.58531 -116.84624 27618 ft 453 kts 323°
2026-04-21 07:10 46.61202 -116.86991 26973 ft 450 kts 323°
2026-04-21 07:11 46.63880 -116.89366 26329 ft 448 kts 324°
2026-04-21 07:11 46.66518 -116.91708 25681 ft 446 kts 324°
2026-04-21 07:11 46.69150 -116.94049 25032 ft 443 kts 324°
2026-04-21 07:11 46.71761 -116.96373 24390 ft 441 kts 324°
2026-04-21 07:12 46.74360 -116.98689 23742 ft 438 kts 324°
2026-04-21 07:12 46.76944 -117.00993 23091 ft 436 kts 325°
2026-04-21 07:12 46.79527 -117.03300 22420 ft 433 kts 325°
2026-04-21 07:12 46.82060 -117.05564 21791 ft 430 kts 325°
2026-04-21 07:13 46.84606 -117.07842 21142 ft 427 kts 325°
2026-04-21 07:13 46.87105 -117.10079 20487 ft 423 kts 326°
2026-04-21 07:13 46.89607 -117.12323 19851 ft 415 kts 326°
2026-04-21 07:13 46.92025 -117.14491 19230 ft 403 kts 326°
2026-04-21 07:14 46.94342 -117.16570 18650 ft 391 kts 326°
2026-04-21 07:14 46.96634 -117.18632 18083 ft 380 kts 326°
2026-04-21 07:14 46.98837 -117.20619 17546 ft 369 kts 326°
2026-04-21 07:14 47.00950 -117.22526 17071 ft 359 kts 326°
2026-04-21 07:15 47.03096 -117.24464 16546 ft 354 kts 326°
2026-04-21 07:15 47.05175 -117.26347 15993 ft 353 kts 326°
2026-04-21 07:15 47.07268 -117.28242 15435 ft 353 kts 326°
2026-04-21 07:15 47.09327 -117.30107 14892 ft 352 kts 326°
2026-04-21 07:16 47.11404 -117.31989 14335 ft 351 kts 326°
2026-04-21 07:16 47.13493 -117.33883 13769 ft 351 kts 326°
2026-04-21 07:16 47.15551 -117.35751 13214 ft 350 kts 326°
2026-04-21 07:16 47.17618 -117.37627 12656 ft 350 kts 326°
2026-04-21 07:17 47.19676 -117.39497 12095 ft 349 kts 326°
2026-04-21 07:17 47.21718 -117.41354 11531 ft 342 kts 326°
2026-04-21 07:17 47.23705 -117.43162 10992 ft 335 kts 326°
2026-04-21 07:17 47.25668 -117.44950 10587 ft 323 kts 327°
2026-04-21 07:18 47.27522 -117.46640 10338 ft 308 kts 327°
2026-04-21 07:18 47.29317 -117.48278 10096 ft 297 kts 326°
2026-04-21 07:18 47.31044 -117.49857 9671 ft 293 kts 327°
2026-04-21 07:18 47.32863 -117.51166 9093 ft 296 kts 342°
2026-04-21 07:19 47.34907 -117.51439 8531 ft 296 kts 10°
2026-04-21 07:19 47.36840 -117.50610 8081 ft 291 kts 20°
2026-04-21 07:19 47.38739 -117.49604 7649 ft 286 kts 20°
2026-04-21 07:19 47.40579 -117.48650 7414 ft 274 kts 20°
2026-04-21 07:20 47.42361 -117.47742 6983 ft 271 kts 20°
2026-04-21 07:20 47.44118 -117.46854 6536 ft 269 kts 20°
2026-04-21 07:20 47.45887 -117.45960 6096 ft 266 kts 20°
2026-04-21 07:20 47.47632 -117.45078 5674 ft 263 kts 20°
2026-04-21 07:21 47.49342 -117.44214 5558 ft 257 kts 20°
2026-04-21 07:21 47.51048 -117.43350 5562 ft 263 kts 20°
2026-04-21 07:21 47.52767 -117.42470 5570 ft 258 kts 22°
2026-04-21 07:21 47.54345 -117.41425 5560 ft 237 kts 27°
2026-04-21 07:22 47.55766 -117.40383 5498 ft 220 kts 27°
2026-04-21 07:22 47.57090 -117.39420 5256 ft 205 kts 27°
2026-04-21 07:22 47.58305 -117.38539 5090 ft 181 kts 27°
2026-04-21 07:22 47.59390 -117.37751 5027 ft 166 kts 28°
2026-04-21 07:23 47.60424 -117.36996 4989 ft 167 kts 28°
2026-04-21 07:23 47.61465 -117.36238 4938 ft 168 kts 27°
2026-04-21 07:23 47.62505 -117.35547 4820 ft 162 kts 20°
2026-04-21 07:23 47.63608 -117.35284 4663 ft 156 kts
2026-04-21 07:24 47.64681 -117.35401 4619 ft 157 kts 350°
2026-04-21 07:24 47.65716 -117.35949 4575 ft 159 kts 334°
2026-04-21 07:24 47.66643 -117.36861 4523 ft 161 kts 320°
2026-04-21 07:24 47.67367 -117.38103 4484 ft 160 kts 304°
2026-04-21 07:25 47.67882 -117.39605 4285 ft 165 kts 290°
2026-04-21 07:25 47.68090 -117.41236 4031 ft 159 kts 274°
2026-04-21 07:25 47.68039 -117.42863 3827 ft 157 kts 259°
2026-04-21 07:25 47.67701 -117.44395 3629 ft 158 kts 245°
2026-04-21 07:26 47.67108 -117.45747 3373 ft 160 kts 232°
2026-04-21 07:26 47.66362 -117.46973 3213 ft 156 kts 223°
2026-04-21 07:26 47.65564 -117.48060 3097 ft 157 kts 224°
2026-04-21 07:26 47.64799 -117.49219 2976 ft 157 kts 226°
2026-04-21 07:27 47.64058 -117.50394 2686 ft 155 kts 227°
2026-04-21 07:27 47.63304 -117.51529 2509 ft 151 kts 226°
2026-04-21 07:27 47.62625 -117.52571 2390 ft 135 kts 225°
2026-04-21 07:27 47.62133 -117.53313 2390 ft 68 kts 226°
2026-04-21 07:28 47.61899 -117.53667 2390 ft 40 kts 226°
2026-04-21 07:28 47.61813 -117.53866 2390 ft 18 kts 274°
2026-04-21 07:28 47.61814 -117.54046 2390 ft 17 kts 274°
2026-04-21 07:28 47.61887 -117.54090 2390 ft 15 kts 45°
2026-04-21 07:29 47.61958 -117.53982 2390 ft 14 kts 47°
2026-04-21 07:29 47.62030 -117.53876 2390 ft 15 kts 43°
2026-04-21 07:29 47.62106 -117.53758 2390 ft 18 kts 46°
2026-04-21 07:29 47.62204 -117.53725 2390 ft 16 kts 333°
2026-04-21 07:30 47.62297 -117.53643 2390 ft 17 kts 44°
2026-04-21 07:30 47.62389 -117.53480 2390 ft 17 kts 46°
2026-04-21 07:30 47.62471 -117.53355 2390 ft 16 kts 50°
2026-04-21 07:30 47.62561 -117.53310 2390 ft 14 kts 326°
2026-04-21 07:31 47.62620 -117.53403 2390 ft 10 kts 309°
2026-04-21 07:31 47.62613 -117.53478 2390 ft 3 kts 221°
2026-04-21 07:31 47.62599 -117.53495 2390 ft 1 kts 218°
2026-04-21 07:31 47.62593 -117.53502 2390 ft 1 kts 218°
2026-04-21 07:32 47.62591 -117.53504 2390 ft 0 kts 218°